Simultaneous Nadir Overpasses (SNOs) Predictions

Prediction of SNOs between GOES-17 and METOP-B Satellite Orbit:

Table of predicted SNOs for the next 14.0 days since TLE Epoch: 5/4/2019
Index Date Time (GOES-17) GOES-17 Lat,Lon METOP-B Lat,Lon Distance(km) Time Diff (sec)
1 05/04/2019 18:42:26 -0.01,-137.21 0.30,-138.54 151.36 80
2 05/05/2019 18:24:28 -0.01,-137.22 -0.85,-133.55 417.91 80
3 05/07/2019 06:43:28 0.01,-137.18 -0.24,-138.14 110.22 80
4 05/08/2019 06:20:10 0.00,-137.17 0.91,-133.15 458.16 80
5 05/09/2019 18:39:01 0.00,-137.19 0.13,-137.70 59.09 80
6 05/12/2019 06:40:03 -0.00,-137.13 -0.06,-137.30 20.27 80
7 05/14/2019 18:38:16 0.01,-137.13 -0.04,-136.87 28.77 80
8 05/17/2019 06:33:58 -0.01,-137.06 0.12,-136.47 66.89 80




NCC Satellite Simultaneous Nadir Overpasses (SNOs) Prediction Service
